一网星座-0096星 (ONEWEB-0096 )

导读

ONEWEB-0096是英国OneWeb低轨宽带星座中的一颗卫星,于2020年3月21日发射入轨,运行在约1200公里的近地轨道。该卫星重约147.5公斤,配备Ku和Ka波段通信天线,搭载霍尔效应推进器,设计使用寿命约5-7年,单星通信能力可达7.5Gbps。作为OneWeb星座组网的一部分,它服务于全球宽带互联网接入,覆盖航空、海事、偏远地区网络及应急通信等场景。

基本信息
目录编号:
45439
目录名称:
ONEWEB-0096
国际标识:
2020-020R
轨道中心:
EARTH
卫星名称:
一网星座-0096星
卫星全名:
一网星座-0096星 (ONEWEB-0096 )
卫星状态:
在轨 (已飞行2274 天)
发射日期:
2020-03-21 UTC
国别 :
英国 (GB)
星等 :
--
轨道信息
数据来源 国际轨道数据
星历时间: 2026-06-12T12:10:21+0800
15小时前
查看轨道信息
半长轴: 7595.799km
偏心率: 0.000185
轨道倾角: 87.890°
近地点辐角 87.245°
升交点赤经 22.060°
平近点角 272.889°
近地点: 1216.256km
远地点: 1219.068km
周期: 109.804分钟
每日圈数: 13.114224
详细信息
平衡模式:
三轴稳定
覆盖范围:
全球
运营商:
一网卫星公司
运营商所在国:
英国
制造商(研发单位):
一网卫星公司
制造商所在国:
英国
使用方式:
暂无
卫星简介
OneWeb卫星网络由648颗重约125公斤的微型卫星组成,运行在1200公里的轨道上。 每颗卫星都能够提供至少每秒8千兆位的吞吐量,以使用其高吞吐量的Ku频段有效载荷为家庭和移动平台提供互联网接入。该卫星仍在工作。
2D轨道图
3D轨道图
轨道高度分析图
轨道倾角分析图
轨道综合分析图
查看轨道综合分析图